Terrell, TX

12:57 PM CDT on July 23, 2017 (GMT -0500)
Terrell Municipal

Weather History for KTRL - April, 2013

Change the Weather History Date:

Saturday, April 20, 2013

  Actual Average (KGVT) Record (KGVT)
Temperature  
Mean Temperature 55 °F -  
Max Temperature 72 °F 73 °F 86 °F (2017)
Min Temperature 39 °F 56 °F 41 °F (2013)
Degree Days  
Heating Degree Days 10    
Growing Degree Days 5 (Base 50)    
Moisture  
Dew Point 35 °F    
Average Humidity 50    
Maximum Humidity 82    
Minimum Humidity 24    
Precipitation  
Precipitation 0.00 in - - ()
Sea Level Pressure  
Sea Level Pressure 30.15 in    
Wind  
Wind Speed 6 mph (SSE)    
Max Wind Speed 17 mph    
Max Gust Speed 25 mph    
Visibility 10 miles    
Events      
Averages and records for this station are not official NWS values.
T = Trace of Precipitation, MM = Missing Value Source: NWS Daily Summary

Daily Weather History Graph

Daily Weather History Graph

Search for Another Location

Airport or City:

Trip Planner

Search our weather history database for the weather conditions in past years. The results will help you decide how hot, cold, wet, or windy it might be!

Date:

Astronomy

Apr. 20, 2013 Rise Set
Actual Time 6:49 AM CDT 7:58 PM CDT
Civil Twilight 6:23 AM CDT 8:24 PM CDT
Nautical Twilight 5:53 AM CDT 8:55 PM CDT
Astronomical Twilight 5:22 AM CDT 9:26 PM CDT
Moon 3:00 PM CDT (4/20) 3:21 AM CDT (4/20)
Length of Visible Light 14h 00m
Length of Day
13h 09m
Waxing Gibbous, 71% of the Moon is Illuminated
Apr 20
Waxing Gibbous
Apr 25
Full
May 2
Last Quarter
May 9
New
May 17
First Quarter

Hourly Weather History & Observations

Time (CDT) Temp. Windchill Dew Point Humidity Pressure Visibility Wind Dir Wind Speed Gust Speed Precip Events Conditions
12:53 AM 44.1 °F - 35.1 °F 71% 30.21 in 10.0 mi Calm Calm - N/A   Clear
1:53 AM 43.0 °F 39.5 °F 36.0 °F 76% 30.19 in 10.0 mi South 5.8 mph - N/A   Clear
2:53 AM 44.1 °F 41.5 °F 35.1 °F 71% 30.17 in 10.0 mi South 4.6 mph - N/A   Clear
3:53 AM 44.1 °F - 35.1 °F 71% 30.18 in 10.0 mi Calm Calm - N/A   Clear
4:53 AM 41.0 °F 38.0 °F 34.0 °F 76% 30.17 in 10.0 mi SW 4.6 mph - N/A   Clear
5:53 AM 41.0 °F - 34.0 °F 76% 30.18 in 10.0 mi Calm Calm - N/A   Clear
6:53 AM 39.0 °F 36.8 °F 34.0 °F 82% 30.17 in 10.0 mi SSE 3.5 mph - N/A   Clear
7:53 AM 44.1 °F 41.5 °F 37.9 °F 79% 30.19 in 10.0 mi South 4.6 mph - N/A   Clear
8:53 AM 52.0 °F - 39.9 °F 63% 30.20 in 10.0 mi South 6.9 mph - N/A   Clear
9:53 AM 57.9 °F - 39.9 °F 51% 30.22 in 10.0 mi SSE 10.4 mph - N/A   Clear
10:53 AM 61.0 °F - 35.1 °F 38% 30.23 in 10.0 mi South 16.1 mph - N/A   Clear
11:53 AM 64.9 °F - 32.0 °F 29% 30.21 in 10.0 mi South 16.1 mph 23.0 mph N/A   Clear
12:53 PM 66.0 °F - 35.1 °F 32% 30.18 in 10.0 mi South 16.1 mph 23.0 mph N/A   Clear
1:53 PM 68.0 °F - 37.0 °F 32% 30.14 in 10.0 mi South 17.3 mph 24.2 mph N/A   Clear
2:53 PM 70.0 °F - 36.0 °F 29% 30.12 in 10.0 mi ESE 15.0 mph 19.6 mph N/A   Clear
3:53 PM 71.1 °F - 34.0 °F 26% 30.08 in 10.0 mi SSE 17.3 mph 25.3 mph N/A   Clear
4:53 PM 71.1 °F - 32.0 °F 24% 30.06 in 10.0 mi SE 13.8 mph 24.2 mph N/A   Clear
5:53 PM 71.1 °F - 33.1 °F 25% 30.04 in 10.0 mi SSE 13.8 mph - N/A   Clear
6:53 PM 69.1 °F - 32.0 °F 25% 30.04 in 10.0 mi SE 11.5 mph - N/A   Clear
7:53 PM 63.0 °F - 37.9 °F 40% 30.06 in 10.0 mi SE 4.6 mph - N/A   Clear
8:53 PM 59.0 °F - 37.0 °F 44% 30.09 in 10.0 mi South 4.6 mph - N/A   Clear
9:53 PM 57.0 °F - 37.0 °F 47% 30.12 in 10.0 mi Calm Calm - N/A   Clear
10:53 PM 59.0 °F - 36.0 °F 42% 30.13 in 10.0 mi SE 6.9 mph - N/A   Clear
11:53 PM 57.9 °F - 34.0 °F 41% 30.12 in 10.0 mi SE 8.1 mph - N/A   Clear